Regional Weather Roundup
Issued by NWS Newport/Morehead, NC

Current Version | Previous Version | Graphics & Text | Print | Product List | Glossary Off
Versions: 1 2 3 4 5 6 7 8 9 10 11 12 13 14 15 16 17 18 19 20 21 22 23 24 25 26 27 28 29 30 31 32 33 34 35 36 37 38 39 40 41 42 43 44 45 46 47 48 49 50

000
ASUS42 KMHX 201622
RWRMHX
WEATHER ROUNDUP FOR EASTERN NORTH CAROLINA
NATIONAL WEATHER SERVICE NEWPORT/MOREHEAD CITY NC
1100 AM EST THU NOV 20 2014

NOTE: "FAIR" INDICATES FEW OR NO CLOUDS BELOW 12,000 FEET
WITH NO SIGNIFICANT WEATHER AND/OR OBSTRUCTIONS TO VISIBILITY

NCZ015>017-031-032-045>047-102-103-201700-
NORTH COAST

CITY           SKY/WX    TMP DP  RH WIND       PRES   REMARKS
EDENTON        SUNNY     50  27  41 SW9       30.12F
ELIZABETH CITY SUNNY     52  26  36 S8        30.12F
KITTY HAWK     SUNNY     51  27  39 SW8       30.11F
MANTEO         SUNNY     52  30  43 SW9       30.13F

$$

NCZ045>047-081-094-103-104-201700-
CENTRAL COAST

CITY           SKY/WX    TMP DP  RH WIND       PRES   REMARKS
FRISCO         SUNNY     51  29  42 W9G20     30.17F
SWANQUARTER      N/A     50 N/A N/A SW8       30.12F

$$

NCZ095-097-098-100-101-201700-
SOUTHERN COAST

CITY           SKY/WX    TMP DP  RH WIND       PRES   REMARKS
BEAUFORT       SUNNY     52  26  36 W13       30.18F
CEDAR ISLAND     N/A     54 N/A N/A S10       30.18F
JACKSONVILLE   SUNNY     51  23  33 W12       30.18F
PINEY ISLAND   SUNNY     55  24  30 SW13      30.16F
WILMINGTON     SUNNY     55  24  30 W15       30.20F


$$

NCZ011>013-027>030-043-044-078>080-089-090>093-098-201700-
COASTAL PLAIN

CITY           SKY/WX    TMP DP  RH WIND       PRES   REMARKS
AHOSKIE        SUNNY     49  26  39 S7        30.11F
CLINTON        SUNNY     52  26  37 W9        30.17F
ELIZABETHTOWN  SUNNY     52  24  34 W6        30.18F
GOLDSBORO      SUNNY     50  26  38 SW7       30.14F
GREENVILLE     SUNNY     50  27  40 SW7       30.14F
HAVELOCK       MOSUNNY   53  23  31 W12       30.18F
KENANSVILLE    SUNNY     50  22  33 SW9       30.16F
KINSTON        SUNNY     50  23  34 SW8       30.16F
NEW BERN       SUNNY     53  24  32 W12       30.18F
RICHLANDS      SUNNY     54  25  32 SW10      30.17F
ROCKY MOUNT    SUNNY     49  24  37 SW9       30.15F
WASHINGTON     SUNNY     49  25  38 SW8       30.14F
WHITEVILLE     SUNNY     55  24  30 SW9       30.18F

$$

AMZ130-135-150-152-154-156-158-170-250-252-270-ANZ085-086-088-633-658-670-201700-
MARINE OBSERVATIONS

STATION/POSITION TIME  TEMP    WIND        PRES    WAVE   SWELL
                       AIR SEA DIR/SP/G            HT/PER HT/PER
                 (UTC) (F)     (DEG/KT/KT) (MB)    (FT/S) (FT/S)
CHESAPEAKE LIGHT 1600   47     220/ 19/ 20 1018.7
64 E VA BEACH    1600   51 61  250/ 17/ 21 1018.9    5/ 6
DUCK             1600   45 54  230/ 12/ 14 1019.2
2 E DUCK         1600      57                N/A     1/ 2
10 NE DUCK       1600      58                N/A     2/ 3
OREGON INLET     1600   47 45  210/ 12/ 15 1020.4
13E OREGON INLT  1600      60                N/A     3/ 3
HATTERAS CG      1600   53 51  240/ 10/ 14 1021.9
DIAMOND BUOY     1600   55     260/ 17/ 23 1021.8    4/ 5
17 S OCRACOKE    NOT AVBL
CAPE LOOKOUT     1600   52     260/ 17/ 23 1022.1
BEAUFORT LAB     1600   51 53  240/  7/ 12 1020.9
30 SE NEW RIVER  1600   55 70  270/ 21/ 25 1022.4    4/ 5
5 SE WRIGHTSVLE  1500   48 61  270/ 16/ 21 1023.6
225 S CAPE HAT   1544   64 74  220/ 10/ 12 1024.4    2/ 8   2/ 8
41 SE CHARLESTON 1600   56 72  280/ 12/ 17 1025.5    3/ 8   2/ 8

$$



USA.gov is the U.S. government's official web portal to all federal, state and local government web resources and services.